Time,TemperatureF,DewpointF,PressureIn,WindDirection,WindDirectionDegrees,WindSpeedMPH,WindSpeedGustMPH,Humidity,HourlyPrecipIn,Conditions,Clouds,dailyrainin,SolarRadiationWatts/m^2,SoftwareType,DateUTC
2013-06-03 00:00:00,71.7,70.2,29.93,South,176,1.0,1.0,95,0.00,,,0.22,0,Wunderground v.1.15,2013-06-03 04:00:00,
2013-06-03 00:05:00,71.8,70.3,29.93,SSE,164,2.0,3.0,95,0.00,,,0.00,0,Wunderground v.1.15,2013-06-03 04:05:00,
2013-06-03 00:10:00,71.8,70.3,29.93,SSE,153,2.0,2.0,95,0.00,,,0.00,0,Wunderground v.1.15,2013-06-03 04:10:00,
2013-06-03 00:15:00,71.8,70.3,29.93,SSE,168,2.0,7.0,95,0.00,,,0.00,0,Wunderground v.1.15,2013-06-03 04:15:00,
2013-06-03 00:20:00,71.8,70.0,29.93,South,171,2.0,7.0,94,0.00,,,0.01,0,Wunderground v.1.15,2013-06-03 04:20:00,
2013-06-03 00:30:00,71.9,69.8,29.93,South,169,5.0,8.0,93,0.05,,,0.02,0,Wunderground v.1.15,2013-06-03 04:30:00,
2013-06-03 00:35:00,72.1,70.0,29.93,SSE,164,6.0,8.0,93,0.05,,,0.02,0,Wunderground v.1.15,2013-06-03 04:35:00,
2013-06-03 00:40:00,72.1,70.0,29.92,South,182,5.0,5.0,93,0.06,,,0.03,0,Wunderground v.1.15,2013-06-03 04:40:00,
2013-06-03 00:45:00,72.1,70.0,29.93,South,182,4.0,8.0,93,0.06,,,0.03,0,Wunderground v.1.15,2013-06-03 04:45:00,
2013-06-03 00:55:00,72.0,69.9,29.92,SSW,202,4.0,7.0,93,0.04,,,0.04,0,Wunderground v.1.15,2013-06-03 04:55:00,
2013-06-03 01:00:00,71.9,69.8,29.92,South,184,4.0,7.0,93,0.04,,,0.04,0,Wunderground v.1.15,2013-06-03 05:00:00,
2013-06-03 01:05:00,72.0,69.9,29.92,South,191,5.0,7.0,93,0.06,,,0.05,0,Wunderground v.1.15,2013-06-03 05:05:00,
2013-06-03 01:10:00,72.0,69.9,29.92,SSW,196,4.0,4.0,93,0.06,,,0.05,0,Wunderground v.1.15,2013-06-03 05:10:00,
2013-06-03 01:20:00,71.9,69.8,29.92,South,171,1.0,1.0,93,0.00,,,0.05,0,Wunderground v.1.15,2013-06-03 05:20:00,
2013-06-03 01:25:00,71.9,70.1,29.91,SSE,153,0.0,7.0,94,0.00,,,0.05,0,Wunderground v.1.15,2013-06-03 05:25:00,
2013-06-03 01:30:00,71.8,70.0,29.91,South,190,0.0,7.0,94,0.00,,,0.05,0,Wunderground v.1.15,2013-06-03 05:30:00,
2013-06-03 01:35:00,71.8,70.0,29.91,SSE,168,0.0,7.0,94,0.00,,,0.05,0,Wunderground v.1.15,2013-06-03 05:35:00,
2013-06-03 01:40:00,71.7,69.9,29.91,SE,138,0.0,7.0,94,0.00,,,0.05,0,Wunderground v.1.15,2013-06-03 05:40:00,
2013-06-03 01:50:00,71.6,69.8,29.90,South,171,1.0,1.0,94,0.00,,,0.05,0,Wunderground v.1.15,2013-06-03 05:50:00,
2013-06-03 01:55:00,71.5,69.7,29.90,ESE,120,1.0,7.0,94,0.00,,,0.05,0,Wunderground v.1.15,2013-06-03 05:55:00,
2013-06-03 02:00:00,71.5,69.7,29.90,SE,145,0.0,7.0,94,0.00,,,0.05,0,Wunderground v.1.15,2013-06-03 06:00:00,
2013-06-03 02:05:00,71.4,69.6,29.90,SSE,162,0.0,7.0,94,0.00,,,0.05,0,Wunderground v.1.15,2013-06-03 06:05:00,
2013-06-03 02:10:00,71.4,69.9,29.90,SSE,151,0.0,7.0,95,0.00,,,0.05,0,Wunderground v.1.15,2013-06-03 06:10:00,
2013-06-03 02:20:00,71.4,69.9,29.89,SSE,158,0.0,7.0,95,0.00,,,0.05,0,Wunderground v.1.15,2013-06-03 06:20:00,
2013-06-03 02:25:00,71.4,69.9,29.89,SSE,153,0.0,7.0,95,0.00,,,0.05,0,Wunderground v.1.15,2013-06-03 06:25:00,
2013-06-03 02:30:00,71.4,69.9,29.89,SSE,162,0.0,7.0,95,0.00,,,0.05,0,Wunderground v.1.15,2013-06-03 06:30:00,
2013-06-03 02:35:00,71.4,69.9,29.89,SSE,152,0.0,7.0,95,0.00,,,0.05,0,Wunderground v.1.15,2013-06-03 06:35:00,
2013-06-03 02:40:00,71.4,69.9,29.88,South,179,1.0,7.0,95,0.00,,,0.05,0,Wunderground v.1.15,2013-06-03 06:40:00,
2013-06-03 02:50:00,71.4,69.9,29.88,South,188,1.0,7.0,95,0.00,,,0.05,0,Wunderground v.1.15,2013-06-03 06:50:00,
2013-06-03 02:55:00,71.4,69.9,29.89,SSE,158,2.0,7.0,95,0.00,,,0.05,0,Wunderground v.1.15,2013-06-03 06:55:00,
2013-06-03 03:00:00,71.4,69.9,29.89,South,171,3.0,7.0,95,0.00,,,0.05,0,Wunderground v.1.15,2013-06-03 07:00:00,
2013-06-03 03:05:00,71.4,69.9,29.89,South,174,3.0,7.0,95,0.00,,,0.05,0,Wunderground v.1.15,2013-06-03 07:05:00,
2013-06-03 03:15:00,71.4,69.9,29.88,SSE,151,3.0,4.0,95,0.00,,,0.05,0,Wunderground v.1.15,2013-06-03 07:15:00,
2013-06-03 03:20:00,71.3,69.8,29.88,SSE,167,5.0,7.0,95,0.00,,,0.06,0,Wunderground v.1.15,2013-06-03 07:20:00,
2013-06-03 03:25:00,71.3,69.8,29.88,SSW,193,6.0,7.0,95,0.00,,,0.06,0,Wunderground v.1.15,2013-06-03 07:25:00,
2013-06-03 03:30:00,71.4,69.9,29.88,South,185,6.0,7.0,95,0.04,,,0.07,0,Wunderground v.1.15,2013-06-03 07:30:00,
2013-06-03 03:40:00,71.4,69.9,29.88,SE,136,5.0,5.0,95,0.04,,,0.07,0,Wunderground v.1.15,2013-06-03 07:40:00,
2013-06-03 03:45:00,71.5,70.0,29.88,South,172,4.0,7.0,95,0.04,,,0.07,0,Wunderground v.1.15,2013-06-03 07:45:00,
2013-06-03 03:50:00,71.5,70.0,29.87,SE,134,3.0,7.0,95,0.00,,,0.07,0,Wunderground v.1.15,2013-06-03 07:50:00,
2013-06-03 03:55:00,71.5,70.0,29.87,South,172,3.0,7.0,95,0.00,,,0.07,0,Wunderground v.1.15,2013-06-03 07:55:00,
2013-06-03 04:00:00,71.5,70.0,29.87,SSE,153,5.0,9.0,95,0.00,,,0.07,0,Wunderground v.1.15,2013-06-03 08:00:00,
2013-06-03 04:10:00,71.5,70.0,29.86,South,186,5.0,5.0,95,0.00,,,0.07,0,Wunderground v.1.15,2013-06-03 08:10:00,
2013-06-03 04:15:00,71.6,70.1,29.86,SE,137,5.0,7.0,95,0.00,,,0.07,0,Wunderground v.1.15,2013-06-03 08:15:00,
2013-06-03 04:20:00,71.6,70.1,29.86,South,182,6.0,8.0,95,0.00,,,0.07,0,Wunderground v.1.15,2013-06-03 08:20:00,
2013-06-03 04:25:00,71.7,70.2,29.86,SSW,200,6.0,8.0,95,0.00,,,0.07,0,Wunderground v.1.15,2013-06-03 08:25:00,
2013-06-03 04:30:00,71.7,70.2,29.86,SSE,157,5.0,10.0,95,0.00,,,0.07,0,Wunderground v.1.15,2013-06-03 08:30:00,
2013-06-03 04:40:00,71.7,70.2,29.86,South,184,7.0,7.0,95,0.00,,,0.07,0,Wunderground v.1.15,2013-06-03 08:40:00,
2013-06-03 04:45:00,71.7,70.2,29.86,SSE,155,7.0,7.0,95,0.00,,,0.07,0,Wunderground v.1.15,2013-06-03 08:45:00,
2013-06-03 04:50:00,71.8,70.3,29.86,South,185,5.0,9.0,95,0.00,,,0.07,0,Wunderground v.1.15,2013-06-03 08:50:00,
2013-06-03 04:55:00,71.8,70.3,29.86,SSW,196,6.0,9.0,95,0.00,,,0.07,0,Wunderground v.1.15,2013-06-03 08:55:00,
2013-06-03 05:05:00,71.9,70.4,29.86,SSE,147,6.0,7.0,95,0.00,,,0.07,0,Wunderground v.1.15,2013-06-03 09:05:00,
2013-06-03 05:10:00,71.8,70.3,29.86,South,181,5.0,5.0,95,0.00,,,0.07,0,Wunderground v.1.15,2013-06-03 09:10:00,
2013-06-03 05:15:00,71.8,70.3,29.86,South,186,5.0,7.0,95,0.00,,,0.07,0,Wunderground v.1.15,2013-06-03 09:15:00,
2013-06-03 05:20:00,71.8,70.3,29.87,South,182,5.0,5.0,95,0.00,,,0.07,0,Wunderground v.1.15,2013-06-03 09:20:00,
2013-06-03 05:25:00,71.8,70.3,29.87,SW,221,6.0,6.0,95,0.00,,,0.07,0,Wunderground v.1.15,2013-06-03 09:25:00,
2013-06-03 05:35:00,71.8,70.3,29.87,SSW,202,3.0,7.0,95,0.00,,,0.07,0,Wunderground v.1.15,2013-06-03 09:35:00,
2013-06-03 05:40:00,71.9,70.4,29.88,SSE,163,3.0,7.0,95,0.00,,,0.07,0,Wunderground v.1.15,2013-06-03 09:40:00,
2013-06-03 05:45:00,71.9,70.4,29.88,South,171,3.0,7.0,95,0.00,,,0.07,0,Wunderground v.1.15,2013-06-03 09:45:00,
2013-06-03 05:50:00,71.9,70.4,29.88,SSE,157,3.0,7.0,95,0.00,,,0.07,0,Wunderground v.1.15,2013-06-03 09:50:00,
2013-06-03 06:00:00,71.9,70.4,29.88,SE,143,1.0,1.0,95,0.00,,,0.07,0,Wunderground v.1.15,2013-06-03 10:00:00,
2013-06-03 06:05:00,71.9,70.4,29.88,SSW,193,0.0,6.0,95,0.00,,,0.07,0,Wunderground v.1.15,2013-06-03 10:05:00,
2013-06-03 06:10:00,71.9,70.4,29.88,SSW,196,2.0,2.0,95,0.00,,,0.07,0,Wunderground v.1.15,2013-06-03 10:10:00,
2013-06-03 06:15:00,71.9,70.4,29.88,South,185,2.0,3.0,95,0.00,,,0.07,0,Wunderground v.1.15,2013-06-03 10:15:00,
2013-06-03 06:20:00,71.9,70.4,29.88,South,189,0.0,7.0,95,0.00,,,0.07,7,Wunderground v.1.15,2013-06-03 10:20:00,
2013-06-03 06:30:00,72.0,70.5,29.88,SSW,207,0.0,7.0,95,0.00,,,0.07,18,Wunderground v.1.15,2013-06-03 10:30:00,
2013-06-03 06:35:00,72.0,70.5,29.88,South,172,0.0,7.0,95,0.00,,,0.07,14,Wunderground v.1.15,2013-06-03 10:35:00,
2013-06-03 06:40:00,72.1,70.6,29.89,SSE,159,0.0,7.0,95,0.00,,,0.07,11,Wunderground v.1.15,2013-06-03 10:40:00,
2013-06-03 06:45:00,72.1,70.6,29.89,SSE,159,0.0,7.0,95,0.00,,,0.07,14,Wunderground v.1.15,2013-06-03 10:45:00,
2013-06-03 06:50:00,72.1,70.6,29.89,SSE,159,0.0,7.0,95,0.00,,,0.07,16,Wunderground v.1.15,2013-06-03 10:50:00,
2013-06-03 07:00:00,72.0,70.5,29.89,South,172,1.0,1.0,95,0.00,,,0.07,25,Wunderground v.1.15,2013-06-03 11:00:00,
2013-06-03 07:05:00,72.1,70.6,29.89,South,171,1.0,7.0,95,0.00,,,0.07,19,Wunderground v.1.15,2013-06-03 11:05:00,
2013-06-03 07:10:00,72.1,70.6,29.89,South,189,0.0,7.0,95,0.00,,,0.07,16,Wunderground v.1.15,2013-06-03 11:10:00,
2013-06-03 07:15:00,72.1,70.6,29.89,SSE,166,0.0,7.0,95,0.00,,,0.07,23,Wunderground v.1.15,2013-06-03 11:15:00,
2013-06-03 07:25:00,72.1,70.6,29.89,South,175,1.0,7.0,95,0.00,,,0.07,39,Wunderground v.1.15,2013-06-03 11:25:00,
2013-06-03 07:30:00,72.2,70.7,29.89,South,189,2.0,2.0,95,0.00,,,0.07,28,Wunderground v.1.15,2013-06-03 11:30:00,
2013-06-03 07:35:00,72.2,70.7,29.89,SSE,157,1.0,7.0,95,0.00,,,0.07,12,Wunderground v.1.15,2013-06-03 11:35:00,
2013-06-03 07:40:00,72.2,70.7,29.89,South,171,0.0,7.0,95,0.00,,,0.08,11,Wunderground v.1.15,2013-06-03 11:40:00,
2013-06-03 07:50:00,72.2,70.7,29.89,South,171,0.0,0.0,95,0.00,,,0.08,30,Wunderground v.1.15,2013-06-03 11:50:00,
2013-06-03 08:00:00,72.2,70.7,29.88,SSW,208,1.0,1.0,95,0.00,,,0.08,37,Wunderground v.1.15,2013-06-03 12:00:00,
2013-06-03 08:05:00,72.1,70.6,29.89,South,191,1.0,1.0,95,0.00,,,0.08,60,Wunderground v.1.15,2013-06-03 12:05:00,
2013-06-03 08:10:00,72.2,70.7,29.89,WSW,242,0.0,0.0,95,0.00,,,0.08,60,Wunderground v.1.15,2013-06-03 12:10:00,
2013-06-03 08:15:00,72.2,70.7,29.89,South,186,1.0,1.0,95,0.00,,,0.09,53,Wunderground v.1.15,2013-06-03 12:15:00,
2013-06-03 08:20:00,72.2,70.7,29.89,South,186,1.0,1.0,95,0.29,,,0.11,67,Wunderground v.1.15,2013-06-03 12:20:00,
2013-06-03 08:30:00,72.0,70.5,29.88,SSE,164,1.0,3.0,95,0.07,,,0.12,44,Wunderground v.1.15,2013-06-03 12:30:00,
2013-06-03 08:35:00,72.0,70.5,29.89,South,184,2.0,5.0,95,0.08,,,0.13,26,Wunderground v.1.15,2013-06-03 12:35:00,
2013-06-03 08:40:00,71.7,70.2,29.89,SSW,196,5.0,7.0,95,1.60,,,0.15,12,Wunderground v.1.15,2013-06-03 12:40:00,
2013-06-03 08:50:00,71.3,70.1,29.89,SSE,161,5.0,5.0,96,0.18,,,0.25,42,Wunderground v.1.15,2013-06-03 12:50:00,
2013-06-03 09:00:00,71.2,70.0,29.88,South,179,1.0,1.0,96,0.08,,,0.27,60,Wunderground v.1.15,2013-06-03 13:00:00,
2013-06-03 09:05:00,71.2,70.0,29.88,SSW,192,0.0,1.0,96,0.05,,,0.27,67,Wunderground v.1.15,2013-06-03 13:05:00,
2013-06-03 09:10:00,71.2,70.0,29.88,SSE,161,1.0,4.0,96,0.00,,,0.27,91,Wunderground v.1.15,2013-06-03 13:10:00,
2013-06-03 09:15:00,71.2,70.3,29.88,SW,214,0.0,4.0,97,0.00,,,0.27,100,Wunderground v.1.15,2013-06-03 13:15:00,
2013-06-03 09:20:00,71.2,70.3,29.87,SW,220,0.0,0.0,97,0.00,,,0.27,116,Wunderground v.1.15,2013-06-03 13:20:00,
2013-06-03 09:25:00,71.3,70.1,29.87,SW,215,0.0,0.0,96,0.00,,,0.27,113,Wunderground v.1.15,2013-06-03 13:25:00,
2013-06-03 09:35:00,71.3,70.1,29.87,SSW,193,1.0,1.0,96,0.00,,,0.27,128,Wunderground v.1.15,2013-06-03 13:35:00,
2013-06-03 09:40:00,71.5,70.3,29.87,SSW,197,0.0,4.0,96,0.00,,,0.27,135,Wunderground v.1.15,2013-06-03 13:40:00,
2013-06-03 09:45:00,71.5,70.3,29.87,SSW,207,0.0,4.0,96,0.00,,,0.27,132,Wunderground v.1.15,2013-06-03 13:45:00,
2013-06-03 09:55:00,71.7,70.8,29.87,SSW,194,0.0,0.0,97,0.00,,,0.27,137,Wunderground v.1.15,2013-06-03 13:55:00,
2013-06-03 10:00:00,71.7,70.8,29.88,SSW,198,0.0,0.0,97,0.00,,,0.27,151,Wunderground v.1.15,2013-06-03 14:00:00,
2013-06-03 10:05:00,71.9,71.0,29.87,SSW,198,0.0,0.0,97,0.00,,,0.27,156,Wunderground v.1.15,2013-06-03 14:05:00,
2013-06-03 10:10:00,72.0,70.8,29.88,SSW,198,0.0,0.0,96,0.00,,,0.27,163,Wunderground v.1.15,2013-06-03 14:10:00,
2013-06-03 10:15:00,72.1,70.9,29.88,SW,215,0.0,0.0,96,0.00,,,0.27,163,Wunderground v.1.15,2013-06-03 14:15:00,
2013-06-03 10:25:00,72.4,71.2,29.88,SSW,211,0.0,0.0,96,0.00,,,0.27,97,Wunderground v.1.15,2013-06-03 14:25:00,
2013-06-03 10:30:00,72.4,71.2,29.88,SW,223,0.0,3.0,96,0.00,,,0.27,183,Wunderground v.1.15,2013-06-03 14:30:00,
2013-06-03 10:35:00,72.5,71.3,29.88,SW,229,1.0,3.0,96,0.00,,,0.27,237,Wunderground v.1.15,2013-06-03 14:35:00,
2013-06-03 10:40:00,72.7,71.5,29.88,South,188,1.0,1.0,96,0.00,,,0.27,213,Wunderground v.1.15,2013-06-03 14:40:00,
2013-06-03 10:45:00,72.8,71.6,29.88,SSW,202,0.0,1.0,96,0.00,,,0.27,193,Wunderground v.1.15,2013-06-03 14:45:00,
2013-06-03 10:55:00,72.9,71.4,29.88,WSW,239,0.0,0.0,95,0.00,,,0.27,207,Wunderground v.1.15,2013-06-03 14:55:00,
2013-06-03 11:00:00,72.8,71.0,29.88,West,278,0.0,0.0,94,0.00,,,0.27,116,Wunderground v.1.15,2013-06-03 15:00:00,
2013-06-03 11:05:00,72.8,71.0,29.88,South,190,0.0,2.0,94,0.00,,,0.27,91,Wunderground v.1.15,2013-06-03 15:05:00,
2013-06-03 11:10:00,73.0,71.2,29.88,SW,229,2.0,5.0,94,0.00,,,0.27,188,Wunderground v.1.15,2013-06-03 15:10:00,
2013-06-03 11:20:00,73.2,71.4,29.88,SW,221,1.0,4.0,94,0.00,,,0.27,116,Wunderground v.1.15,2013-06-03 15:20:00,
2013-06-03 11:25:00,73.2,71.4,29.88,SW,225,2.0,4.0,94,0.00,,,0.27,287,Wunderground v.1.15,2013-06-03 15:25:00,
2013-06-03 11:30:00,73.4,71.6,29.88,SSW,196,1.0,1.0,94,0.00,,,0.27,334,Wunderground v.1.15,2013-06-03 15:30:00,
2013-06-03 11:35:00,73.5,71.7,29.88,SSW,204,0.0,1.0,94,0.00,,,0.27,425,Wunderground v.1.15,2013-06-03 15:35:00,
2013-06-03 11:40:00,73.6,71.4,29.88,SW,233,2.0,2.0,93,0.00,,,0.27,397,Wunderground v.1.15,2013-06-03 15:40:00,
2013-06-03 11:50:00,74.0,71.8,29.88,SSW,200,4.0,4.0,93,0.00,,,0.27,366,Wunderground v.1.15,2013-06-03 15:50:00,
2013-06-03 11:55:00,74.1,71.3,29.88,SW,219,5.0,5.0,91,0.00,,,0.27,272,Wunderground v.1.15,2013-06-03 15:55:00,
2013-06-03 12:00:00,74.3,71.5,29.88,WSW,240,5.0,6.0,91,0.00,,,0.27,288,Wunderground v.1.15,2013-06-03 16:00:00,
2013-06-03 12:05:00,74.3,71.2,29.88,SSW,193,5.0,7.0,90,0.00,,,0.27,278,Wunderground v.1.15,2013-06-03 16:05:00,
2013-06-03 12:15:00,74.6,71.5,29.88,SSW,205,4.0,7.0,90,0.00,,,0.27,250,Wunderground v.1.15,2013-06-03 16:15:00,
2013-06-03 12:20:00,74.6,71.5,29.88,WSW,250,3.0,3.0,90,0.00,,,0.27,438,Wunderground v.1.15,2013-06-03 16:20:00,
2013-06-03 12:25:00,74.7,71.2,29.87,SSW,209,2.0,4.0,89,0.00,,,0.27,519,Wunderground v.1.15,2013-06-03 16:25:00,
2013-06-03 12:30:00,75.0,71.2,29.87,SW,226,3.0,3.0,88,0.00,,,0.27,626,Wunderground v.1.15,2013-06-03 16:30:00,
2013-06-03 12:35:00,75.4,71.3,29.87,WSW,253,2.0,3.0,87,0.00,,,0.27,587,Wunderground v.1.15,2013-06-03 16:35:00,
2013-06-03 12:45:00,75.1,70.6,29.86,NW,304,2.0,4.0,86,0.00,,,0.27,468,Wunderground v.1.15,2013-06-03 16:45:00,
2013-06-03 12:50:00,75.1,70.6,29.86,NW,325,3.0,5.0,86,0.00,,,0.27,139,Wunderground v.1.15,2013-06-03 16:50:00,
2013-06-03 12:55:00,74.6,70.5,29.86,NNW,332,2.0,5.0,87,0.00,,,0.27,294,Wunderground v.1.15,2013-06-03 16:55:00,
2013-06-03 13:00:00,74.4,70.6,29.86,NNW,332,2.0,3.0,88,0.00,,,0.27,239,Wunderground v.1.15,2013-06-03 17:00:00,
2013-06-03 13:10:00,74.4,70.3,29.86,NW,324,3.0,7.0,87,0.00,,,0.27,364,Wunderground v.1.15,2013-06-03 17:10:00,
2013-06-03 13:15:00,74.4,70.3,29.86,NNW,339,4.0,7.0,87,0.00,,,0.27,582,Wunderground v.1.15,2013-06-03 17:15:00,
2013-06-03 13:20:00,74.7,70.2,29.86,WNW,288,2.0,2.0,86,0.00,,,0.27,283,Wunderground v.1.15,2013-06-03 17:20:00,
2013-06-03 13:25:00,75.0,70.5,29.86,NNW,332,2.0,2.0,86,0.00,,,0.27,905,Wunderground v.1.15,2013-06-03 17:25:00,
2013-06-03 13:30:00,75.5,70.7,29.86,NNW,334,1.0,1.0,85,0.00,,,0.27,473,Wunderground v.1.15,2013-06-03 17:30:00,
2013-06-03 13:40:00,75.9,70.7,29.86,NNW,334,0.0,0.0,84,0.00,,,0.27,742,Wunderground v.1.15,2013-06-03 17:40:00,
2013-06-03 13:45:00,76.1,70.9,29.86,NNW,334,0.0,0.0,84,0.00,,,0.27,708,Wunderground v.1.15,2013-06-03 17:45:00,
2013-06-03 13:50:00,76.2,70.7,29.86,NNW,334,0.0,0.0,83,0.00,,,0.27,721,Wunderground v.1.15,2013-06-03 17:50:00,
2013-06-03 13:55:00,76.5,70.6,29.86,NNW,334,0.0,0.0,82,0.00,,,0.27,489,Wunderground v.1.15,2013-06-03 17:55:00,
2013-06-03 14:05:00,76.7,70.1,29.86,North,350,0.0,0.0,80,0.00,,,0.27,714,Wunderground v.1.15,2013-06-03 18:05:00,
2013-06-03 14:10:00,76.9,71.0,29.86,NW,311,0.0,0.0,82,0.00,,,0.27,696,Wunderground v.1.15,2013-06-03 18:10:00,
2013-06-03 14:15:00,77.1,70.8,29.85,NW,311,0.0,0.0,81,0.00,,,0.27,621,Wunderground v.1.15,2013-06-03 18:15:00,
2013-06-03 14:20:00,77.6,70.9,29.86,WSW,254,0.0,0.0,80,0.00,,,0.27,436,Wunderground v.1.15,2013-06-03 18:20:00,
2013-06-03 14:25:00,78.2,71.2,29.85,SSW,198,0.0,0.0,79,0.00,,,0.27,403,Wunderground v.1.15,2013-06-03 18:25:00,
2013-06-03 14:35:00,79.4,71.9,29.85,South,181,1.0,5.0,78,0.00,,,0.27,399,Wunderground v.1.15,2013-06-03 18:35:00,
2013-06-03 14:40:00,79.5,72.4,29.85,South,182,1.0,1.0,79,0.00,,,0.27,392,Wunderground v.1.15,2013-06-03 18:40:00,
2013-06-03 14:45:00,79.5,72.0,29.85,South,176,1.0,1.0,78,0.00,,,0.27,459,Wunderground v.1.15,2013-06-03 18:45:00,
2013-06-03 14:50:00,79.6,72.1,29.85,South,176,0.0,0.0,78,0.00,,,0.27,338,Wunderground v.1.15,2013-06-03 18:50:00,
2013-06-03 14:55:00,79.6,72.5,29.85,South,177,0.0,0.0,79,0.00,,,0.27,401,Wunderground v.1.15,2013-06-03 18:55:00,
2013-06-03 15:00:00,79.8,72.3,29.85,South,177,0.0,0.0,78,0.00,,,0.27,388,Wunderground v.1.15,2013-06-03 19:00:00,
2013-06-03 15:10:00,80.4,73.7,29.85,South,177,0.0,0.0,80,0.00,,,0.27,357,Wunderground v.1.15,2013-06-03 19:10:00,
2013-06-03 15:15:00,80.6,73.1,29.85,SSE,167,0.0,0.0,78,0.00,,,0.27,299,Wunderground v.1.15,2013-06-03 19:15:00,
2013-06-03 15:20:00,80.6,73.1,29.85,SSE,167,0.0,0.0,78,0.00,,,0.27,323,Wunderground v.1.15,2013-06-03 19:20:00,
2013-06-03 15:25:00,80.6,72.7,29.84,SSE,167,0.0,0.0,77,0.00,,,0.27,299,Wunderground v.1.15,2013-06-03 19:25:00,
2013-06-03 15:30:00,80.4,72.5,29.85,South,189,1.0,1.0,77,0.00,,,0.27,264,Wunderground v.1.15,2013-06-03 19:30:00,
2013-06-03 15:35:00,80.0,72.1,29.84,South,184,1.0,1.0,77,0.00,,,0.27,285,Wunderground v.1.15,2013-06-03 19:35:00,
2013-06-03 15:45:00,79.8,71.9,29.84,SSE,165,0.0,1.0,77,0.00,,,0.27,285,Wunderground v.1.15,2013-06-03 19:45:00,
2013-06-03 15:50:00,79.9,72.4,29.84,South,188,0.0,0.0,78,0.00,,,0.27,271,Wunderground v.1.15,2013-06-03 19:50:00,
2013-06-03 15:55:00,79.9,72.4,29.83,South,174,0.0,0.0,78,0.00,,,0.27,265,Wunderground v.1.15,2013-06-03 19:55:00,
2013-06-03 16:00:00,80.0,72.5,29.83,South,174,0.0,0.0,78,0.00,,,0.27,244,Wunderground v.1.15,2013-06-03 20:00:00,
2013-06-03 16:10:00,80.2,73.1,29.83,South,174,0.0,0.0,79,0.00,,,0.27,396,Wunderground v.1.15,2013-06-03 20:10:00,
2013-06-03 16:15:00,80.5,72.6,29.82,South,169,0.0,0.0,77,0.00,,,0.27,322,Wunderground v.1.15,2013-06-03 20:15:00,
2013-06-03 16:20:00,80.8,73.3,29.82,South,169,0.0,0.0,78,0.00,,,0.27,534,Wunderground v.1.15,2013-06-03 20:20:00,
2013-06-03 16:25:00,81.2,73.3,29.82,South,169,0.0,0.0,77,0.00,,,0.27,336,Wunderground v.1.15,2013-06-03 20:25:00,
2013-06-03 16:30:00,81.6,73.7,29.82,South,169,0.0,0.0,77,0.00,,,0.27,301,Wunderground v.1.15,2013-06-03 20:30:00,
2013-06-03 16:40:00,81.8,73.1,29.82,SSE,167,0.0,0.0,75,0.00,,,0.27,399,Wunderground v.1.15,2013-06-03 20:40:00,
2013-06-03 16:45:00,81.9,73.2,29.82,SSE,165,0.0,0.0,75,0.00,,,0.27,360,Wunderground v.1.15,2013-06-03 20:45:00,
2013-06-03 16:50:00,81.7,73.0,29.81,South,178,1.0,1.0,75,0.00,,,0.27,418,Wunderground v.1.15,2013-06-03 20:50:00,
2013-06-03 17:00:00,82.2,74.3,29.82,South,173,0.0,0.0,77,0.00,,,0.27,606,Wunderground v.1.15,2013-06-03 21:00:00,
2013-06-03 17:05:00,82.6,73.9,29.82,South,173,0.0,0.0,75,0.00,,,0.27,503,Wunderground v.1.15,2013-06-03 21:05:00,
2013-06-03 17:10:00,83.0,73.0,29.82,South,173,0.0,0.0,72,0.00,,,0.27,468,Wunderground v.1.15,2013-06-03 21:10:00,
2013-06-03 17:15:00,83.2,73.6,29.82,South,173,0.0,1.0,73,0.00,,,0.27,582,Wunderground v.1.15,2013-06-03 21:15:00,
2013-06-03 17:20:00,83.3,73.7,29.82,South,173,1.0,1.0,73,0.00,,,0.27,429,Wunderground v.1.15,2013-06-03 21:20:00,
2013-06-03 17:30:00,83.4,73.0,29.82,South,173,0.0,0.0,71,0.00,,,0.27,533,Wunderground v.1.15,2013-06-03 21:30:00,
2013-06-03 17:35:00,83.8,73.4,29.83,South,173,0.0,0.0,71,0.00,,,0.27,234,Wunderground v.1.15,2013-06-03 21:35:00,
2013-06-03 17:40:00,83.9,72.2,29.82,South,173,0.0,0.0,68,0.00,,,0.27,406,Wunderground v.1.15,2013-06-03 21:40:00,
2013-06-03 17:45:00,84.0,73.6,29.83,South,173,0.0,0.0,71,0.00,,,0.27,487,Wunderground v.1.15,2013-06-03 21:45:00,
2013-06-03 17:50:00,84.4,74.0,29.82,South,173,0.0,0.0,71,0.00,,,0.27,325,Wunderground v.1.15,2013-06-03 21:50:00,
2013-06-03 18:00:00,84.3,73.0,29.82,SSE,161,0.0,0.0,69,0.00,,,0.27,464,Wunderground v.1.15,2013-06-03 22:00:00,
2013-06-03 18:05:00,83.9,73.1,29.82,South,169,1.0,2.0,70,0.00,,,0.27,429,Wunderground v.1.15,2013-06-03 22:05:00,
2013-06-03 18:10:00,83.5,72.7,29.82,South,180,2.0,2.0,70,0.00,,,0.27,223,Wunderground v.1.15,2013-06-03 22:10:00,
2013-06-03 18:15:00,83.5,72.7,29.82,South,180,1.0,2.0,70,0.00,,,0.27,385,Wunderground v.1.15,2013-06-03 22:15:00,
2013-06-03 18:20:00,83.6,72.8,29.82,South,180,0.0,0.0,70,0.00,,,0.27,169,Wunderground v.1.15,2013-06-03 22:20:00,
2013-06-03 18:30:00,83.0,73.9,29.82,South,180,0.0,0.0,74,0.00,,,0.27,79,Wunderground v.1.15,2013-06-03 22:30:00,
2013-06-03 18:35:00,82.1,73.8,29.82,South,180,0.0,0.0,76,0.00,,,0.27,65,Wunderground v.1.15,2013-06-03 22:35:00,
2013-06-03 18:40:00,81.1,72.8,29.82,South,180,0.0,0.0,76,0.00,,,0.27,56,Wunderground v.1.15,2013-06-03 22:40:00,
2013-06-03 18:50:00,80.1,73.7,29.83,South,180,0.0,0.0,81,0.00,,,0.27,42,Wunderground v.1.15,2013-06-03 22:50:00,
2013-06-03 18:55:00,79.3,73.3,29.83,South,180,0.0,0.0,82,0.00,,,0.27,39,Wunderground v.1.15,2013-06-03 22:55:00,
2013-06-03 19:00:00,78.7,73.1,29.83,South,180,0.0,0.0,83,0.00,,,0.27,32,Wunderground v.1.15,2013-06-03 23:00:00,
2013-06-03 19:05:00,78.3,73.1,29.83,South,180,0.0,0.0,84,0.00,,,0.27,23,Wunderground v.1.15,2013-06-03 23:05:00,
2013-06-03 19:10:00,77.6,73.1,29.83,South,180,0.0,0.0,86,0.00,,,0.27,25,Wunderground v.1.15,2013-06-03 23:10:00,
2013-06-03 19:20:00,76.9,72.7,29.83,South,180,0.0,0.0,87,0.00,,,0.27,25,Wunderground v.1.15,2013-06-03 23:20:00,
2013-06-03 19:25:00,76.6,72.4,29.83,South,185,0.0,0.0,87,0.00,,,0.27,21,Wunderground v.1.15,2013-06-03 23:25:00,
2013-06-03 19:30:00,76.3,72.5,29.83,NW,323,0.0,0.0,88,0.00,,,0.27,23,Wunderground v.1.15,2013-06-03 23:30:00,
2013-06-03 19:35:00,76.2,72.4,29.83,NW,323,0.0,0.0,88,0.00,,,0.28,26,Wunderground v.1.15,2013-06-03 23:35:00,
2013-06-03 19:45:00,75.9,72.4,29.83,NW,323,0.0,0.0,89,0.00,,,0.28,32,Wunderground v.1.15,2013-06-03 23:45:00,
2013-06-03 19:50:00,75.7,72.6,29.83,NW,323,0.0,0.0,90,0.00,,,0.28,35,Wunderground v.1.15,2013-06-03 23:50:00,
2013-06-03 19:55:00,75.3,71.8,29.83,NW,313,1.0,1.0,89,0.00,,,0.28,33,Wunderground v.1.15,2013-06-03 23:55:00,
2013-06-03 20:00:00,75.2,72.1,29.83,North,350,1.0,1.0,90,0.00,,,0.28,53,Wunderground v.1.15,2013-06-04 00:00:00,
2013-06-03 20:05:00,75.2,72.1,29.83,North,5,0.0,1.0,90,0.00,,,0.28,47,Wunderground v.1.15,2013-06-04 00:05:00,
2013-06-03 20:15:00,75.1,71.6,29.84,NW,310,0.0,0.0,89,0.00,,,0.28,32,Wunderground v.1.15,2013-06-04 00:15:00,
2013-06-03 20:20:00,74.9,71.8,29.85,NNE,21,1.0,1.0,90,0.00,,,0.28,23,Wunderground v.1.15,2013-06-04 00:20:00,
2013-06-03 20:25:00,74.6,71.5,29.85,NNE,15,1.0,1.0,90,0.00,,,0.28,14,Wunderground v.1.15,2013-06-04 00:25:00,
2013-06-03 20:30:00,74.3,71.2,29.86,NNW,345,1.0,2.0,90,0.00,,,0.28,9,Wunderground v.1.15,2013-06-04 00:30:00,
2013-06-03 20:40:00,73.8,70.4,29.85,NNE,12,1.0,1.0,89,0.00,,,0.28,0,Wunderground v.1.15,2013-06-04 00:40:00,
2013-06-03 20:45:00,73.7,70.3,29.85,North,351,1.0,1.0,89,0.00,,,0.28,0,Wunderground v.1.15,2013-06-04 00:45:00,
2013-06-03 20:50:00,73.5,70.1,29.86,North,355,0.0,0.0,89,0.00,,,0.28,0,Wunderground v.1.15,2013-06-04 00:50:00,
2013-06-03 20:55:00,73.4,70.0,29.86,North,355,0.0,0.0,89,0.00,,,0.28,0,Wunderground v.1.15,2013-06-04 00:55:00,
2013-06-03 21:05:00,73.1,69.7,29.86,North,355,0.0,0.0,89,0.00,,,0.28,0,Wunderground v.1.15,2013-06-04 01:05:00,
2013-06-03 21:10:00,72.9,69.1,29.86,North,355,0.0,0.0,88,0.00,,,0.28,0,Wunderground v.1.15,2013-06-04 01:10:00,
2013-06-03 21:15:00,72.8,69.4,29.86,North,355,0.0,0.0,89,0.00,,,0.28,0,Wunderground v.1.15,2013-06-04 01:15:00,
2013-06-03 21:20:00,72.7,69.6,29.86,North,355,0.0,0.0,90,0.00,,,0.28,0,Wunderground v.1.15,2013-06-04 01:20:00,
2013-06-03 21:25:00,72.4,69.0,29.86,North,355,0.0,0.0,89,0.00,,,0.28,0,Wunderground v.1.15,2013-06-04 01:25:00,
2013-06-03 21:35:00,72.2,69.1,29.86,North,355,0.0,0.0,90,0.00,,,0.28,0,Wunderground v.1.15,2013-06-04 01:35:00,
2013-06-03 21:40:00,72.0,68.9,29.87,North,355,0.0,0.0,90,0.00,,,0.28,0,Wunderground v.1.15,2013-06-04 01:40:00,
2013-06-03 21:45:00,72.0,69.2,29.87,North,355,0.0,0.0,91,0.00,,,0.28,0,Wunderground v.1.15,2013-06-04 01:45:00,
2013-06-03 21:50:00,71.9,69.1,29.88,North,355,0.0,0.0,91,0.00,,,0.28,0,Wunderground v.1.15,2013-06-04 01:50:00,
2013-06-03 22:00:00,71.8,69.0,29.88,North,355,0.0,0.0,91,0.00,,,0.28,0,Wunderground v.1.15,2013-06-04 02:00:00,
2013-06-03 22:05:00,71.7,69.3,29.88,North,355,0.0,0.0,92,0.00,,,0.28,0,Wunderground v.1.15,2013-06-04 02:05:00,
2013-06-03 22:10:00,71.6,69.2,29.89,North,355,0.0,0.0,92,0.00,,,0.28,0,Wunderground v.1.15,2013-06-04 02:10:00,
2013-06-03 22:20:00,71.2,69.1,29.90,North,355,0.0,0.0,93,0.00,,,0.28,0,Wunderground v.1.15,2013-06-04 02:20:00,
2013-06-03 22:25:00,70.9,68.8,29.90,North,355,0.0,0.0,93,0.00,,,0.28,0,Wunderground v.1.15,2013-06-04 02:25:00,
2013-06-03 22:30:00,70.6,68.5,29.90,North,355,0.0,0.0,93,0.00,,,0.28,0,Wunderground v.1.15,2013-06-04 02:30:00,
2013-06-03 22:35:00,70.5,68.7,29.91,North,355,0.0,0.0,94,0.00,,,0.28,0,Wunderground v.1.15,2013-06-04 02:35:00,
2013-06-03 22:45:00,70.4,68.6,29.91,North,355,0.0,0.0,94,0.00,,,0.28,0,Wunderground v.1.15,2013-06-04 02:45:00,
2013-06-03 22:50:00,70.4,68.9,29.90,North,355,0.0,0.0,95,0.00,,,0.28,0,Wunderground v.1.15,2013-06-04 02:50:00,
2013-06-03 22:55:00,70.5,69.0,29.91,North,355,0.0,0.0,95,0.00,,,0.28,0,Wunderground v.1.15,2013-06-04 02:55:00,
2013-06-03 23:05:00,70.6,69.1,29.91,North,355,0.0,0.0,95,0.00,,,0.28,0,Wunderground v.1.15,2013-06-04 03:05:00,
2013-06-03 23:10:00,70.4,68.9,29.91,North,355,0.0,0.0,95,0.00,,,0.28,0,Wunderground v.1.15,2013-06-04 03:10:00,
2013-06-03 23:15:00,70.3,68.8,29.91,North,355,0.0,0.0,95,0.00,,,0.28,0,Wunderground v.1.15,2013-06-04 03:15:00,
2013-06-03 23:20:00,70.3,68.8,29.92,North,355,0.0,0.0,95,0.00,,,0.28,0,Wunderground v.1.15,2013-06-04 03:20:00,
2013-06-03 23:30:00,70.2,68.7,29.93,North,355,0.0,0.0,95,0.00,,,0.28,0,Wunderground v.1.15,2013-06-04 03:30:00,
2013-06-03 23:35:00,70.1,68.9,29.93,North,355,0.0,0.0,96,0.00,,,0.28,0,Wunderground v.1.15,2013-06-04 03:35:00,
2013-06-03 23:40:00,70.1,68.9,29.93,North,355,0.0,0.0,96,0.00,,,0.28,0,Wunderground v.1.15,2013-06-04 03:40:00,
2013-06-03 23:45:00,70.1,68.9,29.93,North,5,0.0,0.0,96,0.00,,,0.28,0,Wunderground v.1.15,2013-06-04 03:45:00,
2013-06-03 23:50:00,70.0,68.5,29.93,North,355,0.0,0.0,95,0.00,,,0.28,0,Wunderground v.1.15,2013-06-04 03:50:00,